Theta_e
343 340 347 349 350 349 349 352 350 350 349 351 351 353 351 350 350 351 349 350 346 343 341 345 349 352 341 339 338 338 347 354 356 353 353 354 353 350 342 344 345 347 344
346 340 337 347 345 345 348 355 354 354 352 351 353 353 353 350 351 345 347 350 353 351 346 350 354 352 353 350 349 349 342 347 350 351 349 343 340 343 346 347 346 347 347
348 346 339 339 344 346 346 354 354 353 351 349 353 354 352 354 353 348 346 348 351 350 348 348 351 354 356 357 357 355 354 354 355 356 351 349 347 348 349 349 350 348 347
348 348 345 338 337 339 342 348 351 351 348 347 348 353 354 354 352 352 351 350 349 350 350 349 350 349 351 350 352 354 355 355 353 354 355 353 352 351 352 353 350 348 346
349 348 346 345 342 337 336 336 339 345 350 348 347 349 353 352 350 350 348 348 346 346 346 349 346 348 346 345 346 346 347 351 353 352 351 352 353 354 353 351 349 345 347
347 346 345 345 346 345 338 336 337 337 340 344 346 349 350 348 343 345 345 343 344 345 345 344 345 352 350 350 351 351 350 350 351 352 354 356 350 348 351 351 344 350 348
346 346 345 345 346 347 345 341 340 339 339 340 341 343 345 346 342 345 347 350 351 348 347 348 350 353 352 352 352 351 351 351 351 350 353 350 350 348 344 347 349 348 348
347 346 345 346 347 347 348 349 347 344 343 342 341 343 347 349 351 351 353 351 348 348 350 350 348 346 349 349 350 351 349 346 347 349 348 345 344 350 352 351 349 348 349
350 352 352 350 349 348 349 351 351 351 349 347 347 349 352 353 352 350 348 347 347 346 346 346 348 347 347 346 342 347 345 345 346 347 348 352 352 354 352 350 349 350 349
351 351 351 351 351 351 351 352 353 353 353 352 350 351 351 350 349 347 347 341 341 345 347 348 347 347 345 346 347 348 347 347 348 347 349 350 351 351 351 350 351 353 350
348 345 342 342 350 342 345 352 354 354 353 351 349 339 345 344 339 338 342 343 342 340 337 338 342 346 347 343 348 347 348 348 349 348 348 349 349 350 351 352 351 351 352
348 349 349 349 350 345 347 350 349 350 350 346 336 337 331 337 343 342 342 339 338 336 337 340 343 339 337 340 343 342 341 342 348 351 353 354 353 353 352 351 351 353 353
344 344 344 344 345 345 345 345 346 346 347 346 341 336 338 343 340 338 338 338 339 338 337 337 336 336 337 335 334 330 334 329 337 350 353 353 354 352 352 351 351 353 353
341 341 341 340 345 346 348 346 345 345 344 343 342 340 339 336 338 338 336 335 337 339 342 338 338 339 338 338 342 335 335 350 349 350 354 353 352 351 351 350 351 352 353
334 332 338 339 341 340 339 337 336 336 340 343 343 342 343 344 342 342 339 337 337 338 341 343 345 345 346 347 348 350 351 350 351 351 352 353 352 351 349 351 350 351 353
330 329 330 338 340 338 336 334 332 331 331 329 330 335 336 334 332 331 331 331 332 335 337 338 341 343 344 345 346 344 343 344 345 347 347 349 348 345 345 346 351 350 352
322 323 324 325 327 329 329 330 330 334 330 330 331 330 327 324 322 322 323 323 323 322 326 332 335 338 341 342 343 342 342 343 343 342 342 340 340 340 341 341 341 345 345
320 322 323 322 322 319 321 326 325 328 328 327 327 329 329 328 327 326 326 325 323 323 323 325 328 332 334 334 335 336 336 337 337 338 339 339 338 339 340 341 341 344 345
323 319 321 321 320 318 317 318 322 324 325 326 326 328 329 328 328 328 326 325 325 326 324 324 325 325 326 328 329 330 331 331 332 332 335 336 337 338 338 339 341 342 343
323 322 320 320 319 318 318 319 319 321 324 324 324 325 327 327 326 326 324 321 325 327 324 322 320 319 320 322 324 326 327 329 330 331 331 332 333 334 336 335 336 339 342
322 322 321 321 320 319 319 318 318 319 320 321 320 321 323 324 325 324 323 319 324 326 324 320 317 317 315 315 316 318 321 323 324 325 327 328 330 331 332 334 334 336 337
307 316 320 320 320 319 318 317 317 316 319 320 320 317 318 320 321 321 320 320 323 323 321 319 317 316 314 312 313 311 311 312 312 312 313 315 320 324 327 330 332 334 335
305 306 309 315 317 318 318 317 316 315 315 317 320 319 317 318 319 318 318 318 319 320 319 317 316 315 314 314 312 311 310 310 309 308 307 307 308 310 317 325 328 331 332
307 307 308 309 310 310 310 310 310 311 314 314 315 318 317 317 317 316 315 316 318 316 317 316 315 315 313 313 311 310 310 309 309 309 309 307 304 304 305 310 314 321 326
306 306 306 308 308 309 309 310 310 311 312 313 313 313 312 312 313 313 314 314 314 315 315 314 314 313 313 314 312 311 310 310 310 309 309 307 305 302 304 306 307 308 311
306 306 306 307 307 309 310 310 310 310 311 311 312 313 313 313 313 311 311 311 312 312 312 313 313 314 314 314 312 311 310 310 310 309 309 308 307 305 302 303 305 305 305
Wind_Speed
39 43 43 39 37 35 31 30 29 27 24 23 20 25 24 20 18 20 19 18 16 16 16 16 16 15 17 17 16 20 21 20 25 31 30 29 29 28 28 26 27 29 32
36 38 42 39 39 40 34 33 32 29 26 23 20 20 24 20 16 15 17 17 18 18 19 18 16 15 16 15 15 17 19 21 26 31 32 31 30 27 29 30 31 33 34
40 35 38 42 41 40 41 35 36 34 29 25 21 21 23 21 17 16 16 18 18 17 19 22 22 20 21 21 20 21 21 22 22 26 31 31 30 31 33 33 35 38 36
43 40 38 39 39 41 44 42 40 37 31 29 28 26 23 21 19 19 19 21 22 23 22 21 23 24 26 26 24 23 25 26 28 29 31 32 33 35 37 38 41 40 36
46 43 40 35 36 38 40 41 43 42 41 35 32 30 26 25 26 25 24 24 25 25 25 25 25 26 27 28 30 30 29 29 29 31 33 34 37 40 40 40 40 43 35
46 43 38 35 34 34 36 38 39 41 43 41 37 35 33 32 29 29 28 27 27 27 27 27 28 26 25 26 27 28 28 30 32 33 36 39 41 41 42 45 45 34 33
45 44 42 39 37 33 29 33 34 34 34 37 43 40 37 35 31 27 25 25 26 27 28 29 29 29 29 28 29 29 31 31 31 32 36 43 47 47 44 34 30 29 24
47 46 43 41 39 37 34 31 31 33 31 31 32 36 35 31 25 24 24 26 27 28 29 31 33 33 33 35 34 36 38 39 39 42 45 45 40 31 27 24 27 30 30
39 39 40 40 39 37 37 34 31 31 32 32 31 31 29 29 28 26 26 27 28 28 28 31 34 35 35 35 38 36 39 38 36 35 34 33 31 30 28 26 28 29 31
25 28 21 18 27 31 32 33 33 33 31 30 30 32 35 31 27 27 24 27 31 30 29 33 37 39 40 35 31 33 35 33 30 29 30 29 25 28 31 27 30 29 24
14 23 20 30 30 26 30 34 34 31 29 15 13 8 5 16 18 21 24 23 26 28 32 32 37 37 32 37 33 29 24 25 29 31 34 36 33 30 25 24 23 19 19
11 9 11 18 23 11 29 25 17 11 17 16 11 24 4 22 27 23 24 17 19 23 20 21 27 30 29 24 22 19 18 23 25 28 30 29 28 25 19 17 16 17 15
4 6 5 3 4 5 8 7 5 5 7 11 10 14 17 20 24 24 24 22 22 24 19 15 7 4 9 2 2 7 14 17 27 29 23 17 13 13 12 15 19 19 16
9 7 4 6 6 6 6 5 6 6 10 8 7 10 13 16 16 12 13 17 20 24 20 19 18 17 17 19 18 18 24 22 25 24 24 21 16 15 15 17 19 17 17
13 11 7 9 14 11 7 8 7 5 2 3 6 3 12 13 13 10 11 12 13 15 14 16 20 19 18 16 16 17 18 17 17 19 19 21 19 18 17 17 16 17 16
11 15 20 11 10 12 11 11 11 13 14 12 9 6 6 2 1 1 3 4 4 6 8 7 9 11 14 17 17 16 19 19 21 21 20 23 23 22 22 20 16 15 16
8 9 9 12 12 10 7 7 9 8 9 10 8 6 7 7 5 6 8 10 11 11 8 7 8 11 13 15 17 19 19 19 19 19 18 19 19 19 21 23 21 19 19
6 6 6 5 7 9 7 5 6 5 5 5 4 5 5 6 11 14 14 14 13 12 11 11 12 13 13 12 12 12 11 11 11 11 11 11 12 14 13 12 13 15 19
6 4 5 4 3 6 7 6 5 5 5 5 7 9 9 11 12 11 10 11 12 13 14 14 14 13 14 13 13 12 11 10 10 10 11 12 12 12 11 11 12 14 14
6 8 8 7 5 5 7 8 9 6 8 7 9 7 8 10 9 11 11 13 13 12 14 16 15 14 13 13 12 12 12 11 11 11 11 12 14 13 14 13 12 12 13
12 10 12 14 13 11 12 13 12 11 12 15 17 17 13 11 12 11 14 16 13 12 14 15 14 14 15 14 13 12 13 13 12 12 13 13 15 15 15 15 16 14 13
13 15 16 16 18 18 15 14 13 14 14 16 14 14 17 18 13 12 14 13 12 12 14 17 16 15 16 14 12 12 12 13 14 14 14 14 15 15 15 15 15 16 15
13 13 15 18 21 23 24 25 25 20 17 15 20 21 16 15 16 18 18 16 16 16 14 14 14 16 17 19 15 12 13 15 15 17 18 17 15 15 14 13 13 14 14
13 12 14 15 17 19 19 19 19 13 13 8 5 14 13 14 17 18 18 15 15 16 16 15 15 16 17 17 13 13 15 15 15 17 20 20 18 16 14 12 12 12 14
18 18 17 14 14 15 14 13 12 9 8 11 7 2 4 4 5 4 4 12 15 16 18 17 17 19 20 19 13 12 12 12 14 16 17 19 19 17 16 15 14 13 12
17 17 17 18 19 14 14 15 12 12 15 16 17 19 14 11 10 7 6 9 10 15 14 17 18 20 21 22 17 15 13 11 13 14 15 17 18 17 17 17 16 15 13
Wind_Direction
209 210 212 213 216 219 218 214 216 224 224 233 243 234 229 238 252 250 251 254 259 260 256 261 269 284 278 275 275 270 275 282 288 293 299 303 307 311 316 319 326 324 327
208 211 213 212 215 218 216 212 214 221 225 232 227 216 225 238 248 252 252 256 261 268 268 270 276 280 288 292 291 294 289 277 286 293 300 306 308 313 315 322 328 327 331
210 210 213 215 217 219 217 214 214 224 230 231 233 223 228 236 242 252 258 259 264 271 275 275 268 273 277 282 288 291 293 295 296 300 305 308 312 315 320 322 324 327 328
214 214 214 216 218 220 220 221 221 224 231 234 234 237 236 243 251 253 255 260 265 268 269 270 271 276 284 284 286 285 289 293 298 297 299 305 311 314 315 318 321 328 324
216 217 219 220 221 221 224 225 227 229 231 237 237 239 242 246 255 257 260 266 266 268 270 274 276 277 280 279 281 284 288 290 291 294 298 303 304 306 311 317 320 320 320
220 222 221 217 221 224 225 226 227 230 231 233 235 239 241 247 254 258 259 260 260 264 271 273 273 274 274 275 278 280 285 287 287 292 296 298 300 305 308 310 312 314 316
222 224 224 223 224 225 227 227 228 230 231 233 235 239 242 246 248 250 256 262 267 269 271 275 278 281 283 285 285 286 287 289 287 286 289 293 295 297 302 307 307 307 312
224 226 229 230 230 233 232 234 234 233 234 231 232 235 240 241 245 254 258 258 262 268 270 272 273 277 281 284 287 286 286 289 289 287 288 291 292 295 293 298 300 303 304
217 222 228 234 235 238 241 243 242 240 238 237 239 238 239 240 241 248 258 264 267 270 274 277 271 270 274 278 280 285 283 283 290 292 288 287 291 295 295 295 300 302 307
208 216 215 245 252 246 245 249 252 249 248 244 245 248 243 237 249 256 255 269 279 282 282 283 282 274 269 269 275 281 285 289 292 290 290 289 295 291 291 294 294 298 301
235 234 238 257 258 307 268 249 239 241 242 207 187 347 263 258 273 268 269 278 286 288 290 285 279 273 271 268 267 268 283 297 293 290 288 288 288 292 293 291 292 292 299
188 191 206 230 249 244 256 255 257 264 231 324 313 278 279 279 283 276 279 282 298 303 297 289 277 283 276 259 248 256 295 300 297 300 299 292 285 286 287 287 284 296 305
87 101 123 140 184 202 228 229 223 221 250 191 187 187 236 261 274 277 279 285 279 288 294 280 288 292 161 114 213 297 300 299 303 291 291 289 285 284 280 290 297 303 310
88 82 78 88 93 112 124 107 103 129 135 186 193 258 271 263 269 274 287 289 276 275 267 263 270 277 261 269 278 262 281 273 274 271 275 282 288 292 292 288 291 293 297
89 70 64 76 76 68 59 58 61 46 65 249 221 210 257 260 264 275 279 282 287 279 269 266 269 280 289 279 269 276 284 279 275 269 274 282 285 286 286 281 284 291 290
83 78 72 89 87 65 65 60 68 67 70 66 54 83 128 175 262 338 306 318 327 315 294 295 302 286 278 276 275 267 273 271 269 274 279 281 285 287 285 283 285 292 286
85 89 80 67 70 89 79 64 55 55 57 44 57 65 58 62 52 19 341 336 334 334 330 319 302 290 285 281 279 277 275 277 280 280 281 282 285 287 290 287 282 277 269
45 44 83 75 28 16 359 343 335 311 302 315 294 273 282 296 307 312 313 307 307 298 291 287 286 283 283 279 277 276 277 280 285 287 286 290 296 300 300 302 302 293 284
357 348 353 354 13 1 353 327 324 329 329 315 305 275 273 277 287 291 300 297 294 297 304 299 298 293 290 288 290 293 295 300 308 317 321 316 309 305 306 303 312 294 300
312 315 306 317 294 289 308 313 284 312 286 281 289 301 287 287 291 296 297 304 277 289 311 312 311 308 304 299 296 297 298 300 303 308 310 315 315 315 315 317 318 312 297
284 282 283 288 292 289 292 306 322 289 268 280 293 289 283 277 281 285 300 302 267 281 305 312 317 321 326 317 315 316 312 311 313 314 311 307 305 306 308 313 314 321 309
286 276 276 278 277 279 279 281 308 324 304 274 273 289 286 279 276 282 286 280 268 264 287 302 314 318 325 323 324 332 331 327 330 330 324 320 316 312 307 303 303 308 312
310 296 276 271 276 280 284 286 290 296 314 297 260 266 279 263 269 277 276 271 271 270 276 284 300 311 319 321 320 327 337 338 334 335 337 332 325 321 315 311 305 299 295
355 324 308 299 291 289 290 294 297 291 285 328 328 253 261 265 256 264 277 273 261 267 261 275 285 295 307 312 313 317 328 339 342 345 346 343 336 328 323 315 321 310 303
13 22 17 350 308 299 298 299 290 291 294 275 291 96 152 135 76 18 274 282 266 264 269 277 279 285 288 292 290 301 305 325 341 342 347 348 345 332 321 317 322 322 318
349 346 348 360 11 351 313 304 304 304 292 287 289 284 289 266 245 280 289 286 299 283 267 267 268 271 276 278 276 276 275 292 318 319 324 336 345 340 325 323 318 318 319